Satellite-Ground Cal/Val Site Overpasses Predictions

Prediction of Satellite NPP Overpassing Cal/Val Site: Antarctic Dome C

Ground Cal/Val Site Location: Latitude: -75.10, Longitude: 123.35; Satellite-Ground Site NADIR distance within 100 km.

Table of predicted overpasses for the next 14.0 days since TLE Epoch: 8/12/2023
Interval Starting Time Ending Time Minimum Distance Time Minimum Distance (km)
1 08/12/2023 07:39:11 08/12/2023 07:39:38 08/12/2023 07:39:24 39.18
2 08/13/2023 07:20:24 08/13/2023 07:20:44 08/13/2023 07:20:34 70.84
3 08/15/2023 15:02:38 08/15/2023 15:03:02 08/15/2023 15:02:50 56.62
4 08/16/2023 14:43:48 08/16/2023 14:44:13 08/16/2023 14:44:00 52.59
5 08/17/2023 07:45:30 08/17/2023 07:45:49 08/17/2023 07:45:39 74.48
6 08/18/2023 07:26:35 08/18/2023 07:27:03 08/18/2023 07:26:49 33.34
7 08/20/2023 15:09:00 08/20/2023 15:09:09 08/20/2023 15:09:05 94.51
8 08/21/2023 14:50:00 08/21/2023 14:50:29 08/21/2023 14:50:15 16.74
